{"data":{"norad_id":41838,"epoch":"2026-09-19T21:02:34.733760Z","epoch_age_seconds":79545,"freshness":"FRESH","line1":"1 41838U 16065A   26262.87679090 -.00000203  00000+0  00000+0 0  9990","line2":"2 41838   5.9869  71.4159 0001821  73.2309 266.7334  0.99854943 36142","mean_motion":0.99854943,"eccentricity":0.0001821,"inclination_deg":5.9869,"raan_deg":71.4159,"arg_perigee_deg":73.2309,"mean_anomaly_deg":266.7334,"bstar":0,"rev_number":3614,"period_min":1442.0918551824,"perigee_km":35896.157676376,"apogee_km":35911.556778673,"semimajor_km":42281.994227525,"source":"CELESTRAK","updated_at":"2026-09-20T09:00:35.248722Z"}}